Location: Siloam Springs
(36.1880°N, 94.5400°W)
Time: 00:30:05
(UTC-05:00)

ISS - Visible Passes

Search period start: 19 August 2018 00:00
Search period end: 29 August 2018 00:00
Orbit: 401 x 409 km, 51.6° (Epoch: 19 August)

Date Brightness Start Highest point End Pass type
(mag) Time Alt. Az. Time Alt. Az. Time Alt. Az.
25 Aug -0.6 06:13:55 10° SE 06:14:24 10° SE 06:14:53 10° ESE visible
27 Aug -2.0 06:03:36 10° SSW 06:06:25 27° SE 06:09:15 10° ENE visible
28 Aug -1.1 05:12:47 10° SSE 05:14:29 14° SE 05:16:12 10° E visible
